Change the Weather History Date:

Tuesday, June 3, 2014

  Actual Average Record
Temperature  
Mean Temperature 74 °F 72 °F  
Max Temperature 84 °F 83 °F 96 °F (1951)
Min Temperature 64 °F 61 °F 43 °F (1956)
Degree Days  
Heating Degree Days 0 0  
Month to date heating degree days 0 0  
Since 1 June heating degree days 0 0  
Since 1 July heating degree days 3797 3633  
Cooling Degree Days 9 7  
Month to date cooling degree days 29 21  
Year to date cooling degree days 234 183  
Since 1 June cooling degree days 29 21  
Growing Degree Days 24 (Base 50)    
Moisture  
Dew Point 62 °F    
Average Humidity 67    
Maximum Humidity 79    
Minimum Humidity 55    
Precipitation  
Precipitation 0.00 in 0.13 in 2.59 in (1967)
Month to date precipitation 0.00 0.38  
Year to date precipitation 16.03 21.82  
Snow  
Snow 0.00 in 0.00 in - ()
Month to date snowfall 0.0 0.0  
Since 1 June snowfall 0.0 0.0  
Since 1 July snowfall 12.4 6.5  
Snow Depth 0.00 in    
Sea Level Pressure  
Sea Level Pressure 30.06 in    
Wind  
Wind Speed 6 mph (WSW)    
Max Wind Speed 12 mph    
Max Gust Speed 16 mph    
Visibility 10 miles    
Events      
T = Trace of Precipitation, MM = Missing Value Source: NWS Daily Summary

Daily Weather History Graph

Daily Weather History Graph

Search for Another Location

Airport or City:

Trip Planner

Search our weather history database for the weather conditions in past years. The results will help you decide how hot, cold, wet, or windy it might be!

Date:

Astronomy

Jun. 03, 2014 Rise Set
Actual Time 6:20 AM EDT 8:48 PM EDT
Civil Twilight 5:50 AM EDT 9:17 PM EDT
Nautical Twilight 5:14 AM EDT 9:54 PM EDT
Astronomical Twilight 4:33 AM EDT 10:35 PM EDT
Moon 11:35 AM EDT (6/3) 12:21 AM EDT (6/3)
Length of Visible Light 15h 27m
Length of Day
14h 27m
Waxing Crescent, 30% of the Moon is Illuminated
Jun 3
Waxing Crescent
Jun 5
First Quarter
Jun 13
Full
Jun 19
Last Quarter
Jun 27
New

Hourly Weather History & Observations

Time (EDT) Temp. Heat Index Dew Point Humidity Pressure Visibility Wind Dir Wind Speed Gust Speed Precip Events Conditions
12:53 AM 69.1 °F - 57.0 °F 65% 30.11 in 10.0 mi SW 10.4 mph - N/A   Clear
1:53 AM 66.9 °F - 57.0 °F 70% 30.10 in 10.0 mi SW 6.9 mph - N/A   Clear
2:53 AM 66.9 °F - 57.0 °F 70% 30.09 in 10.0 mi WSW 8.1 mph - N/A   Scattered Clouds
3:53 AM 66.9 °F - 57.0 °F 70% 30.09 in 10.0 mi WSW 9.2 mph - N/A   Scattered Clouds
4:53 AM 64.0 °F - 57.0 °F 78% 30.09 in 10.0 mi SW 4.6 mph - N/A   Mostly Cloudy
5:53 AM 64.9 °F - 57.0 °F 75% 30.09 in 10.0 mi Calm Calm - N/A   Mostly Cloudy
6:53 AM 66.0 °F - 57.0 °F 73% 30.11 in 10.0 mi WNW 3.5 mph - N/A   Mostly Cloudy
7:53 AM 66.9 °F - 59.0 °F 76% 30.12 in 10.0 mi West 4.6 mph - N/A   Mostly Cloudy
8:53 AM 69.1 °F - 59.0 °F 70% 30.13 in 10.0 mi WSW 5.8 mph - N/A   Overcast
9:53 AM 73.0 °F - 60.1 °F 64% 30.12 in 10.0 mi SW 9.2 mph - N/A   Overcast
10:53 AM 73.9 °F - 62.1 °F 66% 30.11 in 10.0 mi SW 10.4 mph - N/A   Overcast
11:53 AM 73.9 °F - 63.0 °F 68% 30.11 in 10.0 mi WSW 10.4 mph - N/A   Overcast
12:53 PM 75.9 °F - 64.0 °F 67% 30.09 in 10.0 mi West 6.9 mph - N/A   Overcast
1:41 PM 77.0 °F - 64.0 °F 64% 30.10 in 10.0 mi Variable 3.5 mph - N/A   Overcast
1:53 PM 77.0 °F - 64.0 °F 64% 30.07 in 10.0 mi WSW 5.8 mph - N/A   Overcast
2:04 PM 78.1 °F - 64.0 °F 62% 30.10 in 10.0 mi Variable 3.5 mph - N/A   Overcast
2:53 PM 80.1 °F 81.9 °F 64.9 °F 60% 30.06 in 10.0 mi Variable 3.5 mph - N/A   Overcast
3:53 PM 82.0 °F 83.4 °F 64.0 °F 54% 30.03 in 10.0 mi Variable 3.5 mph - N/A   Mostly Cloudy
4:53 PM 82.0 °F 83.8 °F 64.9 °F 56% 30.01 in 10.0 mi ENE 5.8 mph - N/A   Mostly Cloudy
5:53 PM 82.9 °F 84.6 °F 64.9 °F 54% 29.99 in 10.0 mi ESE 3.5 mph - N/A   Mostly Cloudy
7:53 PM 81.0 °F 82.5 °F 64.0 °F 56% 29.97 in 10.0 mi West 5.8 mph - N/A   Scattered Clouds
8:53 PM 78.1 °F - 64.0 °F 62% 29.98 in 10.0 mi West 5.8 mph - N/A   Scattered Clouds
9:53 PM 73.9 °F - 64.9 °F 73% 29.98 in 10.0 mi SW 5.8 mph - N/A   Scattered Clouds
10:53 PM 72.0 °F - 64.9 °F 78% 29.99 in 10.0 mi SSW 4.6 mph - N/A   Scattered Clouds
11:53 PM 71.1 °F - 64.9 °F 81% 29.98 in 10.0 mi SSE 3.5 mph - N/A   Partly Cloudy